AE7QG Weather Reports


Display with metric or nautical units.
time (UTC)temp
F
wind
direction
speed
MPH
gust
MPH
rain 1hr
in
rain 24hr
in
rain mn
in
humidity
%
barometer
mb
20260831210038 80 147 3.0 6.0 0.00 0.00 0.00 24 1009.9
20260831204537 81 170 3.0 5.0 0.00 0.00 0.00 23 1010.2
20260831203034 80 213 3.0 7.0 0.00 0.00 0.00 23 1010.3
20260831201532 79 38 2.0 5.0 0.00 0.00 0.00 24 1010.7
20260831200035 78 105 3.0 9.0 0.00 0.00 0.00 24 1010.9
20260831194553 78 221 3.0 5.0 0.00 0.00 0.00 25 1011.2
20260831193030 77 170 1.0 5.0 0.00 0.00 0.00 26 1011.4
20260831191524 76 86 1.0 6.0 0.00 0.00 0.00 25 1011.8
20260831190023 75 148 1.0 6.0 0.00 0.00 0.00 25 1012.1
20260831184518 75 194 2.0 4.0 0.00 0.00 0.00 28 1012.3
20260831183015 73 169 2.0 5.0 0.00 0.00 0.00 32 1012.6
20260831181513 71 182 1.0 5.0 0.00 0.00 0.00 35 1012.9
20260831180011 70 166 2.0 5.0 0.00 0.00 0.00 36 1013.2
20260831174521 69 151 2.0 5.0 0.00 0.00 0.00 37 1013.4
20260831173007 68 124 1.0 4.0 0.00 0.00 0.00 39 1013.5
20260831171503 65 53 1.0 4.0 0.00 0.00 0.00 43 1013.6
20260831170003 63 152 2.0 4.0 0.00 0.00 0.00 44 1013.8
20260831164607 62 176 1.0 4.0 0.00 0.00 0.00 47 1014.1
20260831163057 60 198 2.0 6.0 0.00 0.00 0.00 51 1014.2
20260831161554 59 110 1.0 5.0 0.00 0.00 0.00 53 1014.3
20260831160053 57 165 0.0 5.0 0.00 0.00 0.00 54 1014.5
20260831154602 55 143 0.0 3.0 0.00 0.00 0.00 58 1014.4
20260831153048 54 143 0.0 3.0 0.00 0.00 0.00 59 1014.7
20260831151542 53 139 0.0 3.0 0.00 0.00 0.00 61 1014.8
20260831150038 52 344 0.0 0.0 0.00 0.00 0.00 62 1014.8
20260831144537 50 337 0.0 3.0 0.00 0.00 0.00 66 1014.9
20260831143052 47 312 1.0 2.0 0.00 0.00 0.00 72 1014.7
20260831141548 45 312 0.0 0.0 0.00 0.00 0.00 75 1014.7
20260831140039 43 312 0.0 0.0 0.00 0.00 0.00 76 1014.7
20260831134535 42 312 0.0 0.0 0.00 0.00 0.00 77 1014.7
20260831133032 41 312 0.0 0.0 0.00 0.00 0.00 77 1014.6
20260831131527 41 312 0.0 0.0 0.00 0.00 0.00 78 1014.5
20260831130025 41 312 0.0 0.0 0.00 0.00 0.00 76 1014.4
20260831124523 42 312 0.0 0.0 0.00 0.00 0.00 76 1014.4
20260831123022 42 312 0.0 0.0 0.00 0.00 0.00 75 1014.4
20260831121522 42 312 0.0 0.0 0.00 0.00 0.00 76 1014.2
20260831120023 42 312 0.0 0.0 0.00 0.00 0.00 75 1014.2
20260831114518 42 312 0.0 0.0 0.00 0.00 0.00 74 1014.1
20260831113021 42 312 0.0 0.0 0.00 0.00 0.00 72 1014.2
20260831111514 43 312 0.0 0.0 0.00 0.00 0.00 73 1014.0
20260831110017 43 312 0.0 0.0 0.00 0.00 0.00 71 1013.9
20260831104511 43 312 0.0 0.0 0.00 0.00 0.00 73 1013.6
20260831103009 44 312 0.0 0.0 0.00 0.00 0.00 72 1013.5
20260831101509 43 312 0.0 0.0 0.00 0.00 0.00 71 1013.4
20260831100007 43 312 0.0 0.0 0.00 0.00 0.00 71 1013.4
20260831094506 44 312 0.0 0.0 0.00 0.00 0.00 71 1013.5
20260831093003 44 312 0.0 0.0 0.00 0.00 0.00 69 1013.5
20260831091502 45 312 0.0 0.0 0.00 0.00 0.00 70 1013.5
20260831090000 45 312 0.0 0.0 0.00 0.00 0.00 69 1013.4
20260831084558 45 312 0.0 0.0 0.00 0.00 0.00 68 1013.3
20260831083101 45 312 0.0 0.0 0.00 0.00 0.00 69 1013.3
20260831081556 45 312 0.0 0.0 0.00 0.00 0.00 67 1013.2
20260831080056 46 312 0.0 0.0 0.00 0.00 0.00 66 1013.1
20260831074551 46 312 0.0 0.0 0.00 0.00 0.00 67 1013.0
20260831073048 47 312 0.0 0.0 0.00 0.00 0.00 64 1013.0
20260831071549 47 312 0.0 0.0 0.00 0.00 0.00 65 1012.9
20260831070046 48 312 0.0 0.0 0.00 0.00 0.00 64 1012.7
20260831064543 48 312 0.0 0.0 0.00 0.00 0.00 64 1012.7
20260831063043 48 312 0.0 0.0 0.00 0.00 0.00 63 1012.8
20260831061553 49 312 0.0 0.0 0.00 0.00 0.00 60 1012.8
20260831060037 49 312 0.0 0.0 0.00 0.00 0.00 63 1012.8
20260831054536 49 312 0.0 0.0 0.00 0.00 0.00 61 1012.9
20260831053037 49 312 0.0 0.0 0.00 0.00 0.00 60 1012.8
20260831051538 50 312 0.0 0.0 0.00 0.00 0.00 60 1012.8
20260831050034 51 312 0.0 0.0 0.00 0.00 0.00 59 1012.7
20260831044534 51 312 0.0 0.0 0.00 0.00 0.00 58 1012.7
20260831043032 51 312 0.0 0.0 0.00 0.00 0.00 57 1012.7
20260831041532 52 312 0.0 0.0 0.00 0.00 0.00 57 1012.6
20260831040031 53 312 0.0 0.0 0.00 0.00 0.00 55 1012.5
20260831034529 53 312 0.0 0.0 0.00 0.00 0.00 55 1012.5
20260831033034 54 312 0.0 0.0 0.00 0.00 0.00 52 1012.2
20260831031534 55 312 0.0 0.0 0.00 0.00 0.00 50 1012.2
20260831030025 57 312 0.0 0.0 0.00 0.00 0.00 48 1011.8
20260831024549 58 312 0.0 0.0 0.00 0.00 0.00 47 1011.5
20260831023026 59 312 0.0 0.0 0.00 0.00 0.00 46 1011.3
20260831021524 60 312 0.0 0.0 0.00 0.00 0.00 44 1011.3
20260831020022 61 312 0.0 2.0 0.00 0.00 0.00 43 1011.2
20260831014535 63 312 0.0 2.0 0.00 0.00 0.00 41 1011.2
20260831013023 64 180 0.0 1.0 0.00 0.00 0.00 40 1011.3
20260831011522 65 256 0.0 0.0 0.00 0.00 0.00 39 1011.5
20260831010021 65 256 1.0 3.0 0.00 0.00 0.00 39 1011.4
20260831004521 66 157 1.0 5.0 0.00 0.00 0.00 37 1011.6
20260831003020 67 194 0.0 3.0 0.00 0.00 0.00 37 1011.5
20260831001520 68 311 0.0 4.0 0.00 0.00 0.00 36 1011.5
20260831000019 68 148 1.0 5.0 0.00 0.00 0.00 36 1011.5
20260830234518 68 163 1.0 10.0 0.00 0.00 0.00 36 1011.6
20260830233120 68 22 0.0 4.0 0.00 0.00 0.00 38 1011.6
20260830231526 68 231 2.0 6.0 0.00 0.00 0.00 37 1011.7
20260830230020 68 192 2.0 5.0 0.00 0.00 0.00 36 1011.8
20260830224517 68 144 0.0 4.0 0.00 0.00 0.00 37 1011.8
20260830223016 68 211 0.0 6.0 0.00 0.00 0.00 36 1011.9
20260830221523 69 165 1.0 6.0 0.00 0.00 0.00 35 1011.6
20260830220016 69 193 1.0 5.0 0.00 0.00 0.00 35 1011.6
20260830214614 68 304 3.0 8.0 0.00 0.00 0.00 36 1011.7
20260830213012 67 52 1.0 4.0 0.00 0.00 0.00 37 1011.5
20260830211511 68 288 1.0 6.0 0.00 0.00 0.00 36 1011.5